Regional Weather Roundup
Issued by NWS

Home | Current Version | Previous Version | Graphics & Text | Print | Product List | Glossary Off
Versions: 1 2 3 4 5 6 7 8 9 10 11 12 13 14 15 16 17 18 19 20 21 22 23 24 25 26 27 28 29 30 31 32 33 34 35 36 37 38 39 40 41 42 43 44 45 46 47 48 49 50

000
ASUS43 KDTX 170401
RWRMI
MICHIGAN HOURLY REGIONAL WEATHER ROUNDUP
NATIONAL WEATHER SERVICE DETROIT/PONTIAC MI
1200 AM EDT WED SEP 17 2014

NOTE: "FAIR" INDICATES FEW OR NO CLOUDS BELOW 12,000 FEET WITH NO
SIGNIFICANT WEATHER AND/OR OBSTRUCTION TO VISIBILITY.

MIZ047>049-052>055-059>063-066>070-074>076-081>083-170500-
SOUTHEAST LOWER MICHIGAN

CITY           SKY/WX    TMP DP  RH WIND       PRES   REMARKS
ADRIAN         CLEAR     49  45  86 CALM      30.10S
ALMA           CLEAR     43  41  91 CALM      30.09S
ANN ARBOR      CLEAR     44  39  82 CALM      30.09S
BAD AXE        CLEAR     41  41 100 CALM      30.07R
CARO           CLEAR     44  43  97 CALM      30.07S
DETROIT CITY   CLEAR     57  46  66 NW3       30.08R
DETROIT        CLEAR     53  45  74 NW5       30.09R
FLINT          CLEAR     50  42  74 W3        30.09R
GROSSE ILE     CLEAR     55  48  76 W5        30.07R
HILLSDALE      PTCLDY    45  44  97 CALM      30.10S
HOWELL         CLEAR     46  42  87 CALM      30.08S

CITY           SKY/WX    TMP DP  RH WIND       PRES   REMARKS
JACKSON        CLEAR     46  43  89 CALM      30.10S
LAMBERTVILLE   CLEAR     48  46  93 CALM      30.10R
LANSING        CLEAR     46  41  82 CALM      30.10S
LAPEER         FAIR      46  44  95 CALM      30.08S
MASON          CLEAR     43  41  93 CALM      30.09S
MT. CLEMENS    CLEAR     53  46  75 W6        30.06S
PONTIAC        CLEAR     51  43  74 CALM      30.07F
PORT HOPE        N/A     50  44  80 SW5       30.03F
PORT HURON     FOG       45  45 100 CALM      30.08R VSB 3/4
TRI CITIES     CLEAR     49  43  80 W6        30.08S
TROY           CLEAR     56  44  64 W5        30.09F
SAGINAW HB     CLEAR     48  43  81 W5        30.07S
$$
MIZ043>046-050>051-056>058-064>065-071>073-077>080-170500-
SOUTHWEST LOWER MICHIGAN

CITY           SKY/WX    TMP DP  RH WIND       PRES   REMARKS
BATTLE CREEK   CLEAR     46  42  86 SW3       30.10S
BENTON HARBOR  CLEAR     43  43 100 CALM      30.10S
BIG RAPIDS     CLEAR     42  42 100 CALM      30.07S
COLDWATER      CLEAR     46  45  95 CALM      30.10F
FREMONT        FAIR      42  41  96 CALM      30.08S
HOLLAND        CLEAR     44  42  93 CALM      30.11S
GRAND RAPIDS   CLEAR     48  43  82 W5        30.09F
IONIA          FAIR      46  42  86 W5        30.08S
KALAMAZOO      CLEAR     46  43  89 CALM      30.10F
LUDINGTON      CLEAR     42  41  95 CALM      30.07S
MARSHALL       CLEAR     43  42  99 CALM      30.10R FOG
MOUNT PLEASANT CLEAR     43  41  95 CALM      30.07S
MUSKEGON       CLEAR     45  41  86 CALM      30.09F
SOUTH HAVEN    CLEAR     44  43  97 CALM      30.10S
$$
MIZ016>042-170500-
NORTHERN LOWER MICHIGAN

CITY           SKY/WX    TMP DP  RH WIND       PRES   REMARKS
ALPENA         MOCLDY    50  42  74 SW8       30.01S
BEAVER ISLAND  PTCLDY    58  54  86 W3        30.00S
BELLAIRE       CLEAR     51  43  74 SW3       30.03S
CADILLAC       CLEAR     42  41  95 S3        30.06S
CHARLEVOIX     MOCLDY    55  49  80 SW6       30.03S
FRANKFORT      CLEAR     59  50  72 SW6       30.04F
GAYLORD        CLEAR     48  40  73 SW10      30.03S
GRAYLING       CLEAR     42  40  93 CALM      30.05S
HARBOR SPRINGS MOCLDY    55  46  70 S3        30.01S
HOUGHTON LAKE  CLEAR     51  41  68 SW7       30.06S
MANISTEE       CLEAR     43  39  87 E3        30.06S
OSCODA         CLEAR     46  43  89 SW6       30.03S
PELLSTON       MOCLDY    52  46  80 W5        30.01S
ROGERS CITY    PTCLDY    51  44  76 SW7       30.01R
TRAVERSE CITY  CLEAR     53  43  68 SW5       30.02F
$$
MIZ007>008-015-170500-
EASTERN UPPER MICHIGAN

CITY           SKY/WX    TMP DP  RH WIND       PRES   REMARKS
KINROSS        CLOUDY    50  48  93 CALM      29.99R
MACKINAC ISLAN PTCLDY    55  51  84 NW5       29.99S
NEWBERRY       CLOUDY    46  44  93 W5        30.00R
S. S. MARIE    CLEAR     49  45  86 NW5       29.98S
$$
MIZ004>006-011>014-085-170500-
CENTRAL UPPER MICHIGAN

CITY           SKY/WX    TMP DP  RH WIND       PRES   REMARKS
MANISTIQUE     CLOUDY    50  47  90 CALM      30.00S
ESCANABA       PTCLDY    48  45  87 CALM      30.01R
MENOMINEE      CLEAR     54  45  71 W6        30.01S
SAWYER-GWINN   MOCLDY    51  44  78 CALM      30.00S
$$
MIZ001>003-009>011-084-170500-
WESTERN UPPER MICHIGAN

CITY           SKY/WX    TMP DP  RH WIND       PRES   REMARKS
IRON MOUNTAIN  PTCLDY    52  42  69 W3        29.99S
HOUGHTON       CLOUDY    49  44  83 E8        29.99S
COPPER HARBOR    N/A     46  41  82 SE6       30.01F
IRONWOOD       CLOUDY    55  45  67 SW8       29.97S
$$

ABBREVIATIONS USED IN REMARKS
   TC - TEMPERATURE IN CELSIUS
  WCI - WIND CHILL INDEX
   HX - HEAT INDEX
  VSB - VISIBILITY



USA.gov is the U.S. government's official web portal to all federal, state and local government web resources and services.